632  
ASUS43 KFSD 011010  
RWRFSD  
 
WEATHER ROUNDUP FOR SE SOUTH DAKOTA/SW MINNESOTA/NW IOWA  
NATIONAL WEATHER SERVICE SIOUX FALLS SD  
400 AM CST FRI MAR 01 2024  
 
NOTE: "FAIR" INDICATES FEW OR NO CLOUDS BELOW 12,000 FEET WITH NO  
SIGNIFICANT WEATHER AND OR S TO VISIBILITY
.  
 
 
SDZ038>040-050-052>070-011100-  
SOUTHEAST SOUTH DAKOTA  
 
CITY SKY/WX TMP DP RH WIND PRES REMARKS
 
BROOKINGS CLEAR 37 21 52 S21 29.68S TC 3  
CHAMBERLAIN CLEAR 39 30 70 SW13 29.60S TC 4  
HURON CLEAR 37 32 82 S12 29.60S TC 3  
MITCHELL CLEAR 43 33 68 S15G23 29.64F TC 6  
SIOUX FALLS CLEAR 39 25 57 S23G32 29.73F TC 4  
WINNER CLEAR 44 27 51 S17 29.61F TC 7  
YANKTON CLEAR 39 28 64 S15G23 29.75F TC 4  

 
 
MNZ071-072-080-081-089-090-097-098-011100-  
SOUTHWEST MINNESOTA  
 
CITY SKY/WX TMP DP RH WIND PRES REMARKS
 
FAIRMONT CLEAR 35 15 44 S20 29.85F WCI 24 TC 2  
JACKSON CLEAR 34 19 55 S15 29.81F WCI 24 TC 1  
LUVERNE CLEAR 34 23 64 S15 29.78S WCI 24 TC 1  
MARSHALL CLEAR 38 20 48 S29G36 29.66F TC 3  
MONTEVIDEO CLEAR 37 19 48 S9G17 29.68F TC 3  
REDWOOD FALLS CLEAR 38 17 42 S18 29.76S TC 3  
TRACY CLEAR 37 21 52 S28G37 29.71S TC 3  
WINDOM CLEAR 36 19 51 S18G24 29.78S TC 2  
WORTHINGTON CLEAR 35 23 61 S25G35 29.77F WCI 23 TC 2  

 
 
IAZ001>003-012>014-020>022-031-032-NEZ013-014-SDZ071-011100-  
NORTHWEST IOWA  
 
CITY SKY/WX TMP DP RH WIND PRES REMARKS
 
CHEROKEE CLEAR 36 26 66 S16 29.87S TC 2  
DENISON PTCLDY 36 27 69 S18G24 29.93S TC 2  
ESTHERVILLE CLEAR 33 15 47 S20 29.84F WCI 21 TC 1  
MAURICE MOCLDY 34 25 69 S20G28 29.79F WCI 22 TC 1  
SHELDON MOCLDY 36 23 60 S23 29.79S TC 2  
SIOUX CITY CLEAR 37 28 70 S18G26 29.87F TC 3  
SPENCER CLEAR 38 22 52 S20G29 29.85F TC 3  
STORM LAKE CLEAR 36 25 64 SW18G29 29.87S TC 2  

 
 
ABBREVIATIONS USED IN REMARKS  
TC - TEMPERATURE IN CELSIUS  
WCI - WIND CHILL INDEX  
HX - HEAT INDEX  
VSB - VISIBILITY  
 
 
 
CLICK HERE TO GO TO PREVIOUS BULLETINS.

The Nexlab SD Page
The Nexlab IA Page
The Nexlab MN Page
The Nexlab NE Page Main Text Page